• In Russia
  • List of Countries
  • For 7 days
  • Water Temperature
  • Satellite Maps
  • Weather Map
  • Weather Widgets
  • user-avatar
    Login

    Hourly Weather Balho

    Today, 22 July, Sunday

    Time Temperature Precipitation Wind Pressure Humidity
    00:00 +38°C° 0.1 mm 2 mps 732 mmHg 40%
    01:00 +37°C° 0.1 mm 2 mps 732 mmHg 40%
    02:00 +37°C° 0.1 mm 2 mps 732 mmHg 41%
    03:00 +37°C° 0 mm 2 mps 732 mmHg 41%
    04:00 +36°C° 0.1 mm 2 mps 732 mmHg 42%
    05:00 +36°C° 0.1 mm 3 mps 733 mmHg 44%
    06:00 +35°C° 0.1 mm 4 mps 733 mmHg 45%
    07:00 +36°C° 0.1 mm 4 mps 733 mmHg 43%
    08:00 +37°C° 0.1 mm 4 mps 733 mmHg 40%
    09:00 +37°C° 0.1 mm 4 mps 733 mmHg 37%
    10:00 +39°C° 0 mm 5 mps 733 mmHg 34%
    11:00 +41°C° 0 mm 5 mps 733 mmHg 31%
    12:00 +42°C° 0 mm 5 mps 733 mmHg 28%
    13:00 +42°C° 0 mm 4 mps 732 mmHg 27%
    14:00 +43°C° 0 mm 3 mps 732 mmHg 25%
    15:00 +42°C° 0 mm 2 mps 731 mmHg 23%
    16:00 +42°C° 0.1 mm 2 mps 731 mmHg 23%
    17:00 +42°C° 0.1 mm 2 mps 731 mmHg 23%
    18:00 +42°C° 0.1 mm 2 mps 730 mmHg 23%
    19:00 +42°C° 0.1 mm 2 mps 731 mmHg 24%
    20:00 +42°C° 0.1 mm 3 mps 731 mmHg 25%
    21:00 +42°C° 0.1 mm 3 mps 731 mmHg 27%
    22:00 +40°C° 0 mm 3 mps 732 mmHg 28%
    23:00 +40°C° 0 mm 3 mps 732 mmHg 29%

    Tomorrow, 23 July, Monday

    Time Temperature Precipitation Wind Pressure Humidity
    00:00 +39°C° 0 mm 3 mps 732 mmHg 29%
    01:00 +39°C° 0 mm 3 mps 732 mmHg 31%
    02:00 +39°C° 0 mm 3 mps 732 mmHg 32%
    03:00 +38°C° 0 mm 2 mps 731 mmHg 33%
    04:00 +38°C° 0 mm 2 mps 732 mmHg 34%
    05:00 +37°C° 0 mm 2 mps 732 mmHg 36%
    06:00 +36°C° 0 mm 3 mps 732 mmHg 37%
    07:00 +37°C° 0.1 mm 3 mps 732 mmHg 37%
    08:00 +37°C° 0.1 mm 3 mps 733 mmHg 36%
    09:00 +37°C° 0.1 mm 3 mps 733 mmHg 36%
    10:00 +38°C° 0.1 mm 3 mps 733 mmHg 34%
    11:00 +40°C° 0.1 mm 4 mps 733 mmHg 32%
    12:00 +40°C° 0.1 mm 4 mps 733 mmHg 30%
    13:00 +40°C° 0 mm 3 mps 732 mmHg 29%
    14:00 +42°C° 0 mm 3 mps 731 mmHg 28%
    15:00 +41°C° 0 mm 2 mps 730 mmHg 26%
    16:00 +41°C° 0.1 mm 2 mps 730 mmHg 26%
    17:00 +41°C° 0.1 mm 2 mps 730 mmHg 26%
    18:00 +41°C° 0.1 mm 2 mps 730 mmHg 26%
    19:00 +41°C° 0.5 mm 2 mps 730 mmHg 28%
    20:00 +40°C° 0.5 mm 3 mps 731 mmHg 30%
    21:00 +39°C° 0.5 mm 3 mps 731 mmHg 32%
    22:00 +39°C° 0 mm 3 mps 732 mmHg 33%
    23:00 +39°C° 0 mm 3 mps 732 mmHg 34%

    Day after tomorrow, 24 July, Tuesday

    Time Temperature Precipitation Wind Pressure Humidity
    00:00 +38°C° 0 mm 2 mps 732 mmHg 35%
    01:00 +38°C° 0 mm 2 mps 732 mmHg 35%
    02:00 +38°C° 0 mm 2 mps 731 mmHg 36%
    03:00 +37°C° 0 mm 2 mps 731 mmHg 36%
    04:00 +37°C° 0 mm 2 mps 731 mmHg 37%
    05:00 +36°C° 0 mm 3 mps 731 mmHg 37%
    06:00 +36°C° 0 mm 3 mps 732 mmHg 37%
    07:00 +36°C° 0 mm 4 mps 732 mmHg 36%
    08:00 +37°C° 0 mm 4 mps 732 mmHg 34%
    09:00 +37°C° 0 mm 5 mps 733 mmHg 33%
    10:00 +39°C° 0 mm 5 mps 733 mmHg 31%
    11:00 +40°C° 0 mm 5 mps 733 mmHg 29%
    12:00 +41°C° 0 mm 5 mps 732 mmHg 27%
    13:00 +42°C° 0 mm 5 mps 732 mmHg 26%
    14:00 +42°C° 0 mm 4 mps 731 mmHg 24%
    15:00 +43°C° 0 mm 4 mps 730 mmHg 23%
    16:00 +43°C° 0 mm 3 mps 730 mmHg 23%
    17:00 +42°C° 0 mm 2 mps 730 mmHg 23%
    18:00 +41°C° 0 mm 2 mps 730 mmHg 23%
    19:00 +41°C° 0.1 mm 2 mps 731 mmHg 24%
    20:00 +42°C° 0.1 mm 3 mps 731 mmHg 26%
    21:00 +40°C° 0.1 mm 3 mps 732 mmHg 27%
    22:00 +41°C° 0.1 mm 4 mps 732 mmHg 29%
    23:00 +40°C° 0.1 mm 4 mps 732 mmHg 31%

    25 July, Wednesday

    Time Temperature Precipitation Wind Pressure Humidity
    00:00 +38°C° 0.1 mm 4 mps 732 mmHg 34%
    01:00 +38°C° 0.3 mm 4 mps 732 mmHg 36%
    02:00 +37°C° 0.3 mm 3 mps 732 mmHg 39%
    03:00 +36°C° 0.3 mm 3 mps 731 mmHg 41%
    04:00 +36°C° 0.1 mm 3 mps 732 mmHg 41%
    05:00 +36°C° 0.1 mm 3 mps 732 mmHg 41%
    06:00 +36°C° 0.1 mm 2 mps 732 mmHg 42%
    07:00 +36°C° 0 mm 3 mps 733 mmHg 39%
    08:00 +37°C° 0 mm 4 mps 733 mmHg 37%
    09:00 +39°C° 0 mm 5 mps 734 mmHg 35%
    10:00 +38°C° 0 mm 4 mps 733 mmHg 33%
    11:00 +40°C° 0 mm 4 mps 733 mmHg 32%
    12:00 +41°C° 0 mm 4 mps 733 mmHg 30%
    13:00 +42°C° 0 mm 3 mps 732 mmHg 29%
    14:00 +42°C° 0 mm 3 mps 731 mmHg 28%
    15:00 +42°C° 0 mm 3 mps 730 mmHg 27%
    16:00 +42°C° 0.1 mm 3 mps 730 mmHg 27%
    17:00 +42°C° 0.1 mm 4 mps 730 mmHg 28%
    18:00 +42°C° 0.1 mm 4 mps 730 mmHg 28%
    19:00 +41°C° 0.4 mm 4 mps 731 mmHg 30%
    20:00 +40°C° 0.4 mm 5 mps 731 mmHg 33%
    21:00 +40°C° 0.4 mm 5 mps 732 mmHg 35%
    22:00 +39°C° 0.4 mm 5 mps 732 mmHg 36%
    23:00 +38°C° 0.4 mm 4 mps 732 mmHg 37%

    26 July, Thursday

    Time Temperature Precipitation Wind Pressure Humidity
    00:00 +37°C° 0.4 mm 4 mps 732 mmHg 38%
    01:00 +37°C° 0 mm 3 mps 732 mmHg 39%
    02:00 +37°C° 0 mm 3 mps 732 mmHg 39%
    03:00 +36°C° 0 mm 3 mps 732 mmHg 40%
    04:00 +36°C° 0.1 mm 2 mps 732 mmHg 42%
    05:00 +35°C° 0.1 mm 2 mps 733 mmHg 44%
    06:00 +35°C° 0.1 mm 2 mps 733 mmHg 46%
    07:00 +35°C° 0 mm 2 mps 733 mmHg 44%
    08:00 +36°C° 0 mm 3 mps 734 mmHg 43%
    09:00 +36°C° 0 mm 3 mps 734 mmHg 41%
    10:00 +37°C° 0 mm 3 mps 734 mmHg 39%
    11:00 +38°C° 0 mm 3 mps 734 mmHg 37%
    12:00 +39°C° 0 mm 3 mps 733 mmHg 34%
    13:00 +40°C° 0 mm 3 mps 732 mmHg 33%
    14:00 +40°C° 0 mm 3 mps 732 mmHg 31%
    15:00 +41°C° 0 mm 2 mps 731 mmHg 29%
    16:00 +41°C° 0 mm 2 mps 731 mmHg 29%
    17:00 +41°C° 0 mm 2 mps 731 mmHg 29%
    18:00 +41°C° 0 mm 2 mps 731 mmHg 28%
    19:00 +40°C° 0.1 mm 3 mps 731 mmHg 31%
    20:00 +40°C° 0.1 mm 4 mps 732 mmHg 33%
    21:00 +40°C° 0.1 mm 5 mps 732 mmHg 36%
    22:00 +38°C° 0.5 mm 4 mps 732 mmHg 37%
    23:00 +38°C° 0.5 mm 3 mps 732 mmHg 39%

    27 July, Friday

    Time Temperature Precipitation Wind Pressure Humidity
    00:00 +37°C° 0.5 mm 3 mps 732 mmHg 40%
    01:00 +37°C° 0.4 mm 2 mps 732 mmHg 41%
    02:00 +36°C° 0.4 mm 2 mps 732 mmHg 42%
    03:00 +36°C° 0.4 mm 2 mps 732 mmHg 43%
    04:00 +36°C° 0.3 mm 2 mps 732 mmHg 44%
    05:00 +35°C° 0.3 mm 2 mps 733 mmHg 45%
    06:00 +35°C° 0.3 mm 2 mps 733 mmHg 46%
    07:00 +35°C° 0 mm 2 mps 734 mmHg 45%
    08:00 +36°C° 0 mm 2 mps 734 mmHg 44%
    09:00 +36°C° 0 mm 2 mps 735 mmHg 43%
    10:00 +37°C° 0 mm 2 mps 734 mmHg 40%
    11:00 +38°C° 0 mm 3 mps 734 mmHg 37%
    12:00 +39°C° 0 mm 3 mps 734 mmHg 35%
    13:00 +39°C° 0 mm 3 mps 733 mmHg 33%
    14:00 +40°C° 0 mm 3 mps 732 mmHg 30%
    15:00 +42°C° 0 mm 3 mps 732 mmHg 28%
    16:00 +42°C° 0 mm 3 mps 732 mmHg 28%
    17:00 +42°C° 0 mm 3 mps 731 mmHg 27%
    18:00 +42°C° 0 mm 3 mps 731 mmHg 27%
    19:00 +42°C° 0 mm 3 mps 732 mmHg 28%
    20:00 +40°C° 0 mm 3 mps 732 mmHg 29%
    21:00 +40°C° 0 mm 3 mps 733 mmHg 30%
    22:00 +39°C° 0 mm 2 mps 733 mmHg 31%
    23:00 +39°C° 0 mm 2 mps 732 mmHg 32%
    Show more